カタログに戻る

DELTA 1 DEB

運用中SSO
NORAD 13571·DEBRIS·🇺🇸 United States

打ち上げ Mar 5, 1978 から Vandenberg Space Force Base

Loading…

次のパス (今後24時間)

TLE

最新Source: Space-Track

元期: Sep 13, 2026, 22:56 UTC

1 13571U 78026FJ  26256.95601014  .00002957  00000-0  53733-3 0  9994
2 13571  98.4821 266.4444 0016349  36.8948  26.1957 14.66882174366510

AllMySatでDELTA 1 DEBをリアルタイム追跡

Download on the App Store